Вернуться в каталог

STARLINK-31574

АктивенСвязьVLEO
NORAD 59543·PAYLOAD·🇺🇸 United States

Запущен Apr 18, 2024 с Cape Canaveral Space Force Station

Loading…

Ближайшие Пролёты (ближайшие 24 часа)

TLE

СвежийSource: CelesTrak SupGP

Эпоха: Sep 15, 2026, 02:16 UTC

1 59543C 24074K   26258.09493056  .00026298  00000+0  95248-3 0  2587
2 59543  43.0037 353.9932 0001523 264.3823 320.1817 15.27566005    18

Отслеживайте STARLINK-31574 в реальном времени с AllMySat

Download on the App Store